カタログに戻る

FREGAT R/B

運用中HEO
NORAD 43509·ROCKET BODY·🇷🇺 Russia

打ち上げ Jun 16, 2018 から Plesetsk Cosmodrome

Loading…

次のパス (今後24時間)

TLE

最新Source: Space-Track

元期: Sep 14, 2026, 05:13 UTC

1 43509U 18053B   26257.21791524 -.00000003  00000-0  00000-0 0  9995
2 43509  65.6409  75.2011 0099098  88.3835 272.7865  2.09215673 63000

AllMySatでFREGAT R/Bをリアルタイム追跡

Download on the App Store